Location: Gouy
(50.0008°N, 3.2556°E)
Time: 20:31:23
(UTC+00:00)

NOSS 3-4 (C) - Pass Details

Date: 23 May 2024
Orbit: 814 x 1397 km, 63.4° (Epoch: 04 June)

Event Time Altitude Azimuth Distance (km) Brightness Sun altitude
Rises 00:33:00 0° 315° (NW) 3,760 7.0 -18.5°
Reaches altitude 10° 00:35:31 10° 311° (NW) 2,884 6.3 -18.4°
Maximum altitude 00:42:13 55° 236° (SW) 1,383 4.0 -18.2°
Enters shadow 00:47:18 22° 168° (SSE) 2,445 5.1 -18.0°
